This demonstration page uses our WeatherBlox Daily Observations layout. Learn more.

Left ArrowRight Arrow

38.80484, -77.04692

Hourly Observations for March 15, 2016

Temp ( °F °C ) Dew Point ( °F °C ) Humidity (%) Winds ( mph kmh ) Pressure ( in mb ) Visibility ( mi km ) Precip ( " mm )
12:52 am 00:52 Cloudy 48 8.9 45 7.2 89 89 N 6 9 29.88 1012 10 16 0.00 0.00
1:52 am 01:52 Cloudy with Light Rain 48 8.9 45 7.2 89 89 Calm 29.87 1012 10 16 0.00 0.03
2:25 am 02:25 Cloudy with Light Rain 48 8.9 45 7.2 89 89 ENE 10 17 29.85 1011 10 16 0.01 0.25
2:52 am 02:52 Cloudy with Light Rain 47 8.3 45 7.2 93 93 NE 10 17 29.82 1010 10 16 0.01 0.25
3:25 am 03:25 Cloudy 47 8.3 45 7.2 93 93 NNE 10 17 29.80 1009 10 16 0.00 0.03
3:52 am 03:52 Cloudy 47 8.3 44 6.7 90 90 NE 10 17 29.80 1009 10 16 0.00 0.03
3:59 am 03:59 Cloudy 47 8.3 44 6.7 90 90 NE 10 17 29.80 1009 10 16 0.00 0.00
4:10 am 04:10 Cloudy 46 8 45 7 93 93 ENE 8 13 29.80 1009 10 16 0.00 0.00
4:52 am 04:52 Cloudy 47 8.3 44 6.7 90 90 ENE 9 15 29.81 1009 10 16 0.00 0.00
4:59 am 04:59 Cloudy 47 8.3 44 6.7 90 90 NE 7 11 29.83 1010 10 16 0.00 0.00
5:10 am 05:10 Cloudy 46 8 45 7 93 93 NE 7 11 29.80 1009 10 16 0.00 0.00
5:52 am 05:52 Cloudy 47 8.3 43 6.1 86 86 NE 7 11 29.83 1010 10 16 0.00 0.00
6:17 am 06:17 Cloudy 47 8.3 43 6.1 86 86 NE 8 13 29.83 1010 10 16 0.00 0.00
6:52 am 06:52 Cloudy with Light Rain 47 8.3 43 6.1 86 86 NNE 8 13 29.82 1010 8 13 0.00 0.03
7:52 am 07:52 Cloudy with Light Rain 47 8.3 44 6.7 90 90 N 6 9 29.82 1010 6 10 0.02 0.51
8:17 am 08:17 Cloudy with Light Rain 47 8.3 44 6.7 90 90 NNW 7 11 29.83 1010 6 10 0.00 0.03
8:41 am 08:41 Cloudy 48 8.9 44 6.7 86 86 NNW 8 13 29.83 1010 10 16 0.00 0.03
8:52 am 08:52 Cloudy 48 8.9 44 6.7 86 86 NW 9 15 29.83 1010 9 14 0.00 0.03
9:01 am 09:01 Cloudy 48 8.9 44 6.7 86 86 NNW 9 15 29.83 1010 10 16 0.00 0.00
9:17 am 09:17 Cloudy 48 8.9 44 6.7 86 86 NNW 7 11 29.83 1010 10 16 0.00 0.00
9:52 am 09:52 Cloudy 49 9.4 44 6.7 83 83 VRB 6 9 29.85 1011 10 16 0.00 0.00
10:12 am 10:12 Cloudy 50 10 45 7 82 82 NW 5 7 29.85 1011 10 16 0.00 0.00
10:52 am 10:52 Cloudy 50 10 44 6.7 80 80 NNW 6 9 29.87 1011 10 16 0.00 0.00
11:33 am 11:33 Cloudy 51 10.6 44 6.7 77 77 VRB 5 7 29.88 1012 10 16 0.00 0.00
11:40 am 11:40 Cloudy 52 11 45 7 77 77 WSW 5 7 29.88 1012 10 16 0.00 0.00
11:52 am 11:52 Cloudy 51 10.6 45 7.2 80 80 W 3 6 29.86 1011 10 16 0.00 0.00
12:52 pm 12:52 Cloudy 55 12.8 46 7.8 72 72 VRB 5 7 29.87 1011 10 16 0.00 0.00
1:20 pm 13:20 Cloudy 55 13 46 8 72 72 NW 3 6 29.85 1011 10 16 0.00 0.00
1:49 pm 13:49 Cloudy 57 14 46 8 67 67 NW 8 13 29.85 1011 10 16 0.00 0.00
1:52 pm 13:52 Cloudy 57 13.9 47 8.3 69 69 NW 6 9 29.85 1011 10 16 0.00 0.00
2:52 pm 14:52 Cloudy 59 15 48 8.9 67 67 NNE 8 13 29.82 1010 10 16 0.00 0.00
3:52 pm 15:52 Cloudy 61 16.1 49 9.4 65 65 NE 6 9 29.82 1010 10 16 0.00 0.00
4:52 pm 16:52 Mostly Cloudy 62 16.7 50 10 65 65 N 7 11 29.82 1010 10 16 0.00 0.00
5:10 pm 17:10 Mostly Cloudy 64 18 52 11 64 64 N 9 15 29.83 1010 10 16 0.00 0.00
5:13 pm 17:13 Mostly Cloudy 64 17.8 51 10.6 63 63 NNW 9 15 29.83 1010 10 16 0.00 0.00
5:52 pm 17:52 Partly Cloudy 64 17.8 51 10.6 63 63 NW 8 13 29.82 1010 10 16 0.00 0.00
6:52 pm 18:52 Mostly Sunny 62 16.7 50 10 65 65 NW 6 9 29.83 1010 10 16 0.00 0.00
7:52 pm 19:52 Mostly Clear 61 16.1 50 10 67 67 NW 3 6 29.85 1011 10 16 0.00 0.00
8:52 pm 20:52 Mostly Clear 58 14.4 50 10 75 75 Calm 29.86 1011 10 16 0.00 0.00
9:52 pm 21:52 Clear 56 13.3 50 10 81 81 Calm 29.87 1012 10 16 0.00 0.00
10:52 pm 22:52 Clear 55 12.8 50 10 83 83 S 7 11 29.87 1012 10 16 0.00 0.00
11:52 pm 23:52 Clear 53 11.7 51 10.6 93 93 Calm 29.87 1012 10 16 0.00 0.00

Powered by AerisWeather